sat.trackr.live / text

‹ back to catalog

STARLINK-3264

NORAD 50198 · 2021-125AU

PAYLOAD ACTIVE UNKNOWN

§ Identity

Operator
Country
US
Launch date
2021-12-18
Launch site
AFWTR
Launch vehicle
Mass (kg)
RCS (m²)

Purposes: comms

External: N2YO · Heavens-Above · Gunter

§ Orbital elements

Epoch: 2026-05-24T17:18:56.424960Z

Period
95.44 min
Inclination
53.2161°
Eccentricity
0.0001233
Mean motion
15.08838557 rev/d
Perigee alt
538.9 km
Apogee alt
540.6 km
Semi-major
6,917.9 km
B*
3.6369e-5
RAAN
257.7999°
Arg perigee
92.3392°
Mean anomaly
267.7742°
Rev number
24,821

§ Raw data

STARLINK-32641 50198U 21125AU  26144.72148640  .00000291  00000+0  36369-4 0  99952 50198  53.2161 257.7999 0001233  92.3392 267.7742 15.08838557248210

JSON: /api/v1/satellites/50198 · /tle

For live sub-satellite position, see the globe view (requires WebGL).

§ Visibility from observer

Set your observer location to see the next 7 days of passes ≥ 10°. The values pass through the URL so the page stays shareable.

No JS? Fill the form by hand. The geolocation button needs JavaScript.